Ironwood, MI

4:59 PM CST on November 24, 2017 (GMT -0600)
Gogebic-Iron County

Weather History for KIWD - January, 2013

Change the Weather History Date:

Tuesday, January 22, 2013

  Actual Average Record
Temperature  
Mean Temperature -8 °F -  
Max Temperature 0 °F 19 °F 46 °F (2002)
Min Temperature -16 °F 5 °F -16 °F (2004)
Degree Days  
Heating Degree Days 73    
Moisture  
Dew Point -17 °F    
Average Humidity 66    
Maximum Humidity 84    
Minimum Humidity 50    
Precipitation  
Precipitation 0.00 in - - ()
Sea Level Pressure  
Sea Level Pressure 30.15 in    
Wind  
Wind Speed 12 mph (WSW)    
Max Wind Speed 17 mph    
Max Gust Speed 16 mph    
Visibility 8 miles    
Events      
Averages and records for this station are not official NWS values.
T = Trace of Precipitation, MM = Missing Value Source: NWS Daily Summary

Daily Weather History Graph

Daily Weather History Graph

Search for Another Location

Airport or City:

Trip Planner

Search our weather history database for the weather conditions in past years. The results will help you decide how hot, cold, wet, or windy it might be!

Date:

Astronomy

Jan. 22, 2013 Rise Set
Actual Time 7:34 AM CST 4:50 PM CST
Civil Twilight 7:01 AM CST 5:23 PM CST
Nautical Twilight 6:24 AM CST 6:00 PM CST
Astronomical Twilight 5:48 AM CST 6:36 PM CST
Moon 1:10 PM CST (1/22) 3:58 AM CST (1/22)
Length of Visible Light 10h 21m
Length of Day
9h 15m
Waxing Gibbous, 83% of the Moon is Illuminated
Jan 22
Waxing Gibbous
Jan 26
Full
Feb 3
Last Quarter
Feb 10
New
Feb 17
First Quarter

Hourly Weather History & Observations

Time (CST) Temp. Windchill Dew Point Humidity Pressure Visibility Wind Dir Wind Speed Gust Speed Precip Events Conditions
12:15 AM -9.4 °F -28.9 °F -18.4 °F 65% 30.08 in 1.5 mi WSW 11.5 mph - N/A   Overcast
12:35 AM -11.2 °F -32.9 °F -16.6 °F 77% 30.08 in 1.2 mi WSW 13.8 mph - N/A   Overcast
12:55 AM -11.2 °F -33.7 °F -16.6 °F 77% 30.09 in 1.0 mi WSW 15.0 mph - N/A   Overcast
1:15 AM -11.2 °F -31.1 °F -18.4 °F 70% 30.09 in 1.2 mi WSW 11.5 mph - N/A   Overcast
1:35 AM -11.2 °F -32.9 °F -16.6 °F 77% 30.09 in 1.2 mi WSW 13.8 mph - N/A   Overcast
1:55 AM -11.2 °F -32.9 °F -16.6 °F 77% 30.10 in 1.0 mi WSW 13.8 mph - N/A   Overcast
2:15 AM -11.2 °F -33.7 °F -16.6 °F 77% 30.10 in 1.2 mi WSW 15.0 mph - N/A   Overcast
2:35 AM -11.2 °F -34.4 °F -18.4 °F 70% 30.11 in 1.2 mi WSW 16.1 mph - N/A   Overcast
2:55 AM -11.2 °F -35.2 °F -18.4 °F 70% 30.11 in 1.2 mi WSW 17.3 mph - N/A   Overcast
3:15 AM -11.2 °F -33.7 °F -18.4 °F 70% 30.12 in 1.5 mi West 15.0 mph - N/A   Overcast
3:35 AM -11.2 °F -32.9 °F -18.4 °F 70% 30.12 in 1.8 mi West 13.8 mph - N/A   Overcast
3:55 AM -13.0 °F -35.2 °F -20.2 °F 70% 30.13 in 2.5 mi WSW 13.8 mph - N/A   Overcast
4:15 AM -13.0 °F -35.2 °F -20.2 °F 70% 30.13 in 3.0 mi WSW 13.8 mph - N/A   Overcast
4:35 AM -13.0 °F -36.8 °F -20.2 °F 70% 30.13 in 3.0 mi WSW 16.1 mph - N/A   Overcast
4:55 AM -14.8 °F -39.1 °F -20.2 °F 77% 30.13 in 3.0 mi WSW 16.1 mph - N/A   Overcast
5:15 AM -14.8 °F -38.3 °F -22.0 °F 70% 30.13 in 6.0 mi WSW 15.0 mph - N/A   Overcast
5:35 AM -14.8 °F -37.5 °F -20.2 °F 77% 30.14 in 10.0 mi WSW 13.8 mph - N/A   Mostly Cloudy
5:55 AM -14.8 °F -37.5 °F -23.8 °F 64% 30.15 in 10.0 mi WSW 13.8 mph - N/A   Mostly Cloudy
6:15 AM -16.6 °F -40.6 °F -20.2 °F 84% 30.15 in 10.0 mi WSW 15.0 mph - N/A   Overcast
6:35 AM -14.8 °F -38.3 °F -22.0 °F 70% 30.16 in 10.0 mi WSW 15.0 mph - N/A   Overcast
6:55 AM -16.6 °F -42.1 °F -23.8 °F 70% 30.16 in 10.0 mi WSW 17.3 mph - N/A   Mostly Cloudy
7:15 AM -16.6 °F -41.4 °F -23.8 °F 70% 30.17 in 10.0 mi WSW 16.1 mph - N/A   Mostly Cloudy
7:35 AM -16.6 °F -40.6 °F -23.8 °F 70% 30.17 in 10.0 mi WSW 15.0 mph - N/A   Partly Cloudy
7:55 AM -16.6 °F -40.6 °F -23.8 °F 70% 30.17 in 10.0 mi WSW 15.0 mph - N/A   Partly Cloudy
8:15 AM -16.6 °F -39.8 °F -23.8 °F 70% 30.17 in 10.0 mi WSW 13.8 mph - N/A   Clear
8:35 AM -16.6 °F -39.8 °F -23.8 °F 70% 30.17 in 10.0 mi WSW 13.8 mph - N/A   Partly Cloudy
8:55 AM -16.6 °F -37.9 °F -20.2 °F 84% 30.17 in 10.0 mi WSW 11.5 mph - N/A   Scattered Clouds
9:15 AM -14.8 °F -37.5 °F -20.2 °F 77% 30.17 in 10.0 mi WSW 13.8 mph - N/A   Scattered Clouds
9:35 AM -14.8 °F -38.3 °F -18.4 °F 84% 30.18 in 10.0 mi WSW 15.0 mph - N/A   Mostly Cloudy
9:55 AM -13.0 °F -36.0 °F -20.2 °F 70% 30.19 in 10.0 mi WSW 15.0 mph - N/A   Scattered Clouds
10:15 AM -11.2 °F -32.9 °F -18.4 °F 70% 30.20 in 10.0 mi West 13.8 mph - N/A   Scattered Clouds
10:35 AM -11.2 °F -33.7 °F -18.4 °F 70% 30.20 in 10.0 mi West 15.0 mph - N/A   Partly Cloudy
10:55 AM -9.4 °F -28.9 °F -18.4 °F 65% 30.21 in 10.0 mi WSW 11.5 mph 16.1 mph N/A   Clear
11:15 AM -9.4 °F -29.8 °F -16.6 °F 71% 30.21 in 10.0 mi West 12.7 mph - N/A   Clear
11:35 AM -7.6 °F -28.3 °F -16.6 °F 65% 30.20 in 10.0 mi WSW 13.8 mph - N/A   Scattered Clouds
11:55 AM -7.6 °F -26.6 °F -16.6 °F 65% 30.19 in 10.0 mi West 11.5 mph - N/A   Mostly Cloudy
12:15 PM -7.6 °F -23.4 °F -14.8 °F 71% 30.18 in 10.0 mi WSW 8.1 mph - N/A   Mostly Cloudy
12:35 PM -7.6 °F -23.4 °F -16.6 °F 65% 30.18 in 10.0 mi West 8.1 mph - N/A   Scattered Clouds
12:55 PM -7.6 °F -20.6 °F -14.8 °F 71% 30.17 in 10.0 mi West 5.8 mph - N/A   Partly Cloudy
1:15 PM -5.8 °F -19.9 °F -16.6 °F 60% 30.17 in 10.0 mi West 6.9 mph - N/A   Clear
1:35 PM -5.8 °F -19.9 °F -16.6 °F 60% 30.16 in 10.0 mi West 6.9 mph - N/A   Clear
1:55 PM -5.8 °F -19.9 °F -14.8 °F 65% 30.16 in 10.0 mi West 6.9 mph - N/A   Clear
2:15 PM -4.0 °F -19.0 °F -14.8 °F 60% 30.17 in 10.0 mi West 8.1 mph - N/A   Clear
2:35 PM -4.0 °F -17.8 °F -16.6 °F 55% 30.16 in 10.0 mi West 6.9 mph - N/A   Clear
2:55 PM -2.2 °F -14.2 °F -14.8 °F 55% 30.16 in 10.0 mi West 5.8 mph - N/A   Clear
3:15 PM -2.2 °F -15.6 °F -16.6 °F 50% 30.16 in 10.0 mi West 6.9 mph - N/A   Clear
3:35 PM -2.2 °F -16.8 °F -14.8 °F 55% 30.16 in 10.0 mi West 8.1 mph - N/A   Clear
3:55 PM -0.4 °F -13.4 °F -14.8 °F 51% 30.16 in 10.0 mi West 6.9 mph - N/A   Clear
4:15 PM -0.4 °F -14.7 °F -14.8 °F 51% 30.16 in 10.0 mi WNW 8.1 mph - N/A   Clear
4:35 PM -2.2 °F -16.8 °F -14.8 °F 55% 30.16 in 10.0 mi West 8.1 mph - N/A   Clear
4:55 PM -2.2 °F -16.8 °F -16.6 °F 50% 30.16 in 10.0 mi West 8.1 mph - N/A   Clear
5:15 PM -2.2 °F -15.6 °F -16.6 °F 50% 30.16 in 10.0 mi West 6.9 mph - N/A   Clear
5:35 PM -2.2 °F -16.8 °F -14.8 °F 55% 30.16 in 10.0 mi West 8.1 mph - N/A   Clear
5:55 PM -4.0 °F -19.0 °F -14.8 °F 60% 30.16 in 10.0 mi West 8.1 mph - N/A   Clear
6:15 PM -4.0 °F -19.0 °F -16.6 °F 55% 30.16 in 10.0 mi West 8.1 mph - N/A   Clear
6:35 PM -4.0 °F -19.0 °F -11.2 °F 71% 30.16 in 10.0 mi WSW 8.1 mph - N/A   Clear
6:55 PM -4.0 °F -19.0 °F -16.6 °F 55% 30.16 in 10.0 mi West 8.1 mph - N/A   Clear
7:15 PM -4.0 °F -16.3 °F -14.8 °F 60% 30.15 in 10.0 mi SSW 5.8 mph - N/A   Mostly Cloudy
7:35 PM -2.2 °F -18.0 °F -13.0 °F 60% 30.14 in 10.0 mi SW 9.2 mph - N/A   Overcast
7:55 PM -2.2 °F -18.0 °F -13.0 °F 60% 30.14 in 10.0 mi SW 9.2 mph - N/A   Overcast
8:15 PM -4.0 °F -21.2 °F -14.8 °F 60% 30.13 in 10.0 mi SW 10.4 mph - N/A   Overcast
8:35 PM -4.0 °F -21.2 °F -14.8 °F 60% 30.13 in 10.0 mi SW 10.4 mph - N/A   Overcast
8:55 PM -5.8 °F -23.4 °F -14.8 °F 65% 30.13 in 10.0 mi SW 10.4 mph - N/A   Scattered Clouds
9:15 PM -5.8 °F -23.4 °F -14.8 °F 65% 30.12 in 10.0 mi SW 10.4 mph - N/A   Clear
9:35 PM -5.8 °F -24.4 °F -14.8 °F 65% 30.12 in 10.0 mi SW 11.5 mph - N/A   Clear
9:55 PM -5.8 °F -23.4 °F -14.8 °F 65% 30.12 in 10.0 mi SW 10.4 mph - N/A   Clear
10:15 PM -5.8 °F -23.4 °F -16.6 °F 60% 30.13 in 10.0 mi SW 10.4 mph - N/A   Clear
10:35 PM -5.8 °F -21.2 °F -16.6 °F 60% 30.12 in 10.0 mi SW 8.1 mph - N/A   Clear
10:55 PM -5.8 °F -22.4 °F -16.6 °F 60% 30.13 in 10.0 mi SW 9.2 mph - N/A   Clear
11:15 PM -5.8 °F -22.4 °F -16.6 °F 60% 30.13 in 10.0 mi SW 9.2 mph - N/A   Clear
11:35 PM -5.8 °F -24.4 °F -14.8 °F 65% 30.12 in 10.0 mi SW 11.5 mph - N/A   Clear
11:55 PM -5.8 °F -24.4 °F -16.6 °F 60% 30.11 in 10.0 mi SW 11.5 mph - N/A   Clear